TimeAST,TemperatureF,Dew PointF,Humidity,Sea Level PressureIn,VisibilityMPH,Wind Direction,Wind SpeedMPH,Gust SpeedMPH,PrecipitationIn,Events,Conditions,WindDirDegrees,DateUTC
12:00 AM,78.8,71.6,78,29.92,6.2,Calm,Calm,-,N/A,,Scattered Clouds,0,2012-11-04 04:00:00
1:00 AM,78.8,71.6,78,29.89,6.2,Calm,Calm,-,N/A,,Scattered Clouds,0,2012-11-04 05:00:00
2:00 AM,78.8,71.6,78,29.86,6.2,Calm,Calm,-,N/A,,Scattered Clouds,0,2012-11-04 06:00:00
3:00 AM,77.0,71.6,83,29.86,6.2,Calm,Calm,-,N/A,,Scattered Clouds,0,2012-11-04 07:00:00
4:00 AM,77.0,71.6,83,29.83,6.2,Calm,Calm,-,N/A,,Scattered Clouds,0,2012-11-04 08:00:00
5:00 AM,77.0,71.6,83,29.86,6.2,Calm,Calm,-,N/A,,Scattered Clouds,0,2012-11-04 09:00:00
6:00 AM,78.8,71.6,78,29.86,6.2,Calm,Calm,-,N/A,,Scattered Clouds,0,2012-11-04 10:00:00
7:00 AM,78.8,71.6,78,29.89,6.2,Calm,Calm,-,N/A,,Scattered Clouds,0,2012-11-04 11:00:00
8:00 AM,80.6,75.2,84,29.92,5.0,NE,5.8,-,N/A,,Scattered Clouds,50,2012-11-04 12:00:00
9:00 AM,80.6,75.2,84,29.95,4.3,Calm,Calm,-,N/A,,Mostly Cloudy,0,2012-11-04 13:00:00
9:10 AM,80.6,75.2,84,29.95,4.3,Calm,Calm,-,N/A,Thunderstorm,Thunderstorm,0,2012-11-04 13:10:00
10:00 AM,80.6,77.0,89,29.95,5.6,East,4.6,-,N/A,,Mostly Cloudy,80,2012-11-04 14:00:00
11:00 AM,77.0,73.4,89,29.95,4.3,SE,9.2,-,N/A,Rain,Light Rain Showers,130,2012-11-04 15:00:00
12:00 PM,80.6,77.0,89,29.92,6.2,Calm,Calm,-,N/A,,Mostly Cloudy,0,2012-11-04 16:00:00
1:00 PM,82.4,77.0,84,29.89,6.2,East,11.5,-,N/A,,Mostly Cloudy,90,2012-11-04 17:00:00
2:00 PM,78.8,75.2,89,29.86,5.0,East,13.8,-,N/A,,Mostly Cloudy,100,2012-11-04 18:00:00
3:00 PM,80.6,73.4,79,29.86,6.2,East,8.1,-,N/A,,Mostly Cloudy,90,2012-11-04 19:00:00
4:00 PM,82.4,71.6,70,29.86,6.2,East,9.2,-,N/A,,Mostly Cloudy,80,2012-11-04 20:00:00
5:00 PM,78.8,73.4,83,29.86,6.2,ENE,6.9,-,N/A,,Mostly Cloudy,60,2012-11-04 21:00:00
6:00 PM,78.8,71.6,78,29.86,6.2,Calm,Calm,-,N/A,,Mostly Cloudy,0,2012-11-04 22:00:00
7:00 PM,78.8,71.6,78,29.89,6.2,Calm,Calm,-,N/A,,Mostly Cloudy,0,2012-11-04 23:00:00
8:00 PM,78.8,73.4,83,29.89,6.2,Calm,Calm,-,N/A,,Mostly Cloudy,0,2012-11-05 00:00:00
9:00 PM,78.8,73.4,83,29.89,6.2,Calm,Calm,-,N/A,,Mostly Cloudy,0,2012-11-05 01:00:00
10:00 PM,78.8,73.4,83,29.89,6.2,Calm,Calm,-,N/A,,Mostly Cloudy,0,2012-11-05 02:00:00
11:00 PM,78.8,73.4,83,29.89,6.2,Calm,Calm,-,N/A,,Mostly Cloudy,0,2012-11-05 03:00:00